Weather History for KLHW - December, 2012

Change the Weather History Date:

Thursday, December 27, 2012

  Actual Average Record
Temperature  
Mean Temperature 46 °F -  
Max Temperature 56 °F 60 °F 80 °F (1964)
Min Temperature 34 °F 38 °F 21 °F (1983)
Degree Days  
Heating Degree Days 20    
Moisture  
Dew Point 34 °F    
Average Humidity 72    
Maximum Humidity 98    
Minimum Humidity 46    
Precipitation  
Precipitation 0.00 in - - ()
Sea Level Pressure  
Sea Level Pressure 30.02 in    
Wind  
Wind Speed 8 mph (West)    
Max Wind Speed 14 mph    
Max Gust Speed 21 mph    
Visibility 10 miles    
Events      
Averages and records for this station are not official NWS values.
T = Trace of Precipitation, MM = Missing Value Source: NWS Daily Summary

Daily Weather History Graph

Daily Weather History Graph

Search for Another Location

Airport or City:

Trip Planner

Search our weather history database for the weather conditions in past years. The results will help you decide how hot, cold, wet, or windy it might be!

Date:

Astronomy

Dec. 27, 2012 Rise Set
Actual Time 7:25 AM EST 5:30 PM EST
Civil Twilight 6:58 AM EST 5:57 PM EST
Nautical Twilight 6:27 AM EST 6:27 PM EST
Astronomical Twilight 5:57 AM EST 6:57 PM EST
Moon 5:10 PM EST (12/27) 6:36 AM EST (12/27)
Length of Visible Light 10h 58m
Length of Day
10h 04m
Full, 100% of the Moon is Illuminated
Dec 27
Full
Dec 28
Full
Jan 4
Last Quarter
Jan 11
New
Jan 18
First Quarter

Hourly Weather History & Observations

Time (EST) Temp. Windchill Dew Point Humidity Pressure Visibility Wind Dir Wind Speed Gust Speed Precip Events Conditions
12:55 AM 40.8 °F 35.0 °F 31.6 °F 70% 29.93 in 10.0 mi West 9.2 mph - N/A   Partly Cloudy
1:55 AM 40.3 °F 34.4 °F 31.8 °F 72% 29.94 in 10.0 mi West 9.2 mph - N/A   Clear
2:55 AM 39.4 °F 33.2 °F 31.6 °F 74% 29.95 in 10.0 mi West 9.2 mph - N/A   Clear
3:55 AM 39.0 °F 31.8 °F 31.1 °F 73% 29.96 in 10.0 mi West 11.5 mph - N/A   Clear
4:55 AM 37.9 °F 31.5 °F 30.7 °F 75% 29.96 in 10.0 mi WSW 9.2 mph - N/A   Clear
5:55 AM 36.3 °F 33.7 °F 30.6 °F 80% 29.99 in 10.0 mi WSW 3.5 mph - N/A   Clear
6:55 AM 35.1 °F 29.3 °F 31.1 °F 85% 30.01 in 10.0 mi WSW 6.9 mph - N/A   Clear
7:55 AM 35.1 °F 31.0 °F 31.3 °F 86% 30.02 in 10.0 mi WSW 4.6 mph - N/A   Clear
8:55 AM 39.2 °F 32.0 °F 31.8 °F 75% 30.04 in 10.0 mi West 11.5 mph - N/A   Clear
9:55 AM 43.2 °F 36.6 °F 32.0 °F 65% 30.05 in 10.0 mi West 12.7 mph 20.7 mph N/A   Clear
10:55 AM 46.6 °F - 32.9 °F 59% 30.07 in 10.0 mi West 13.8 mph - N/A   Clear
11:55 AM 49.6 °F - 33.3 °F 53% 30.06 in 10.0 mi West 11.5 mph - N/A   Clear
12:55 PM 51.8 °F - 34.2 °F 51% 30.03 in 10.0 mi West 11.5 mph - N/A   Clear
1:55 PM 54.3 °F - 35.1 °F 48% 30.01 in 10.0 mi West 8.1 mph - N/A   Clear
2:55 PM 55.4 °F - 35.1 °F 46% 30.00 in 10.0 mi WNW 9.2 mph - N/A   Clear
3:55 PM 56.3 °F - 36.0 °F 46% 30.01 in 10.0 mi West 8.1 mph - N/A   Clear
4:55 PM 54.1 °F - 36.7 °F 52% 30.02 in 10.0 mi West 4.6 mph - N/A   Clear
5:55 PM 48.7 °F - 38.3 °F 67% 30.04 in 10.0 mi West 3.5 mph - N/A   Clear
6:55 PM 43.0 °F - 38.8 °F 85% 30.05 in 10.0 mi Calm Calm - N/A   Clear
7:55 PM 39.9 °F - 37.8 °F 92% 30.06 in 10.0 mi Calm Calm - N/A   Clear
8:55 PM 37.9 °F - 36.3 °F 94% 30.08 in 10.0 mi Calm Calm - N/A   Clear
9:55 PM 36.3 °F - 35.2 °F 96% 30.08 in 10.0 mi Calm Calm - N/A   Clear
10:55 PM 35.8 °F - 34.7 °F 96% 30.09 in 10.0 mi Calm Calm - N/A   Clear
11:55 PM 34.7 °F - 34.2 °F 98% 30.08 in 10.0 mi Calm Calm - N/A   Clear